Wind_Speed
4 5 7 9 9 11 11 12 14 15 16 17 18 18 18 18 18 18 19 19 19 20 21 20 20 20 21 21 22 23 23 24 24 24 24 24 25 24 25 25 24 25 26 26
4 6 8 9 10 11 11 12 14 15 17 16 17 17 18 18 18 18 19 18 19 19 19 19 19 20 21 22 23 23 23 24 24 25 24 24 24 25 27 26 25 25 25 26
5 6 7 9 10 12 12 13 14 15 15 16 17 16 16 17 18 18 18 18 18 19 19 19 19 20 21 22 23 24 24 24 24 25 24 25 26 26 25 26 25 26 25 25
6 6 7 8 10 11 11 13 13 14 14 14 16 14 15 16 17 17 18 18 18 18 19 19 20 21 22 23 23 24 24 24 24 25 26 26 27 27 27 27 26 26 26 26
7 7 7 8 9 10 11 12 13 13 13 13 14 14 14 15 16 17 17 18 18 18 18 19 20 21 22 22 23 24 24 25 25 25 26 27 27 27 28 27 26 26 26 25
9 9 9 10 10 10 11 11 12 11 11 11 12 12 12 14 15 16 17 17 17 18 18 18 20 21 22 22 23 24 25 25 26 26 26 27 27 27 27 27 26 26 26 25
10 10 10 10 10 10 9 9 9 9 9 11 12 12 13 14 15 16 16 17 17 18 18 18 19 20 22 23 24 25 25 25 26 26 26 26 27 27 28 28 26 26 26 25
10 11 11 10 9 10 10 9 9 10 11 11 12 13 14 15 16 16 16 16 17 18 18 19 21 21 21 22 23 24 24 25 25 25 26 26 26 27 27 26 25 25 26 25
11 12 12 11 11 11 11 10 10 11 11 12 12 13 14 15 15 16 16 16 17 18 19 20 21 21 21 22 22 22 23 24 25 25 25 25 26 27 26 25 25 25 25 25
12 12 13 12 11 10 10 10 11 11 12 12 12 13 14 14 15 16 18 17 18 18 18 19 20 20 20 21 22 22 23 23 24 24 24 24 24 25 25 24 24 24 24 24
14 13 13 13 11 11 10 11 11 12 12 13 14 14 16 16 17 17 18 17 17 17 18 19 19 19 20 21 22 22 22 22 23 23 23 23 24 24 23 22 23 23 24 24
14 14 13 12 11 11 12 12 12 13 14 13 15 16 16 15 15 16 16 16 16 17 18 18 19 19 20 21 21 22 22 22 22 23 22 22 22 22 21 21 22 22 23 24
14 14 13 12 12 13 13 13 13 14 15 15 15 16 15 15 15 16 16 15 16 18 18 18 19 19 20 21 21 21 21 21 21 21 21 21 20 21 20 19 20 20 21 22
14 14 13 13 14 14 14 15 14 14 15 15 14 15 15 16 16 17 16 16 17 17 18 18 19 20 20 20 20 20 19 19 20 20 19 19 19 19 18 18 19 19 20 21
15 15 15 15 15 15 15 15 15 15 15 15 14 14 15 15 16 16 16 16 17 17 17 17 18 19 19 18 18 18 18 17 18 18 18 17 18 18 18 18 18 19 20 21
15 15 15 15 15 15 15 16 16 15 15 14 14 14 14 14 15 15 16 16 17 17 17 17 17 17 17 17 16 16 16 17 17 17 17 17 18 18 18 17 18 18 19 20
14 14 14 15 15 16 16 15 15 14 13 13 12 13 14 14 14 15 16 17 16 16 15 15 16 16 16 16 16 15 15 16 16 16 16 16 17 17 17 17 17 17 18 19
13 13 13 13 14 14 14 13 13 12 12 12 12 13 13 13 14 15 16 16 16 16 15 15 15 15 15 15 14 14 14 14 14 14 14 16 16 16 16 17 17 17 17 18
12 12 12 12 12 12 13 12 12 11 11 12 11 12 12 13 14 15 16 16 15 15 15 15 15 14 15 14 14 14 14 14 13 13 13 14 15 15 16 16 17 17 17 18
11 11 11 11 12 12 14 13 12 12 12 12 12 12 13 14 15 15 15 15 15 15 15 14 14 14 15 14 14 14 13 13 13 13 13 14 14 15 15 15 16 15 16 16
12 11 12 12 13 13 13 13 12 12 12 12 12 13 13 13 13 14 14 14 14 14 13 13 12 13 13 13 13 13 12 11 11 12 12 12 14 14 14 14 15 15 15 16
12 12 12 13 13 13 12 12 13 12 12 12 13 13 13 13 13 13 13 13 13 12 12 11 11 11 11 11 12 11 10 10 10 10 12 13 14 14 13 14 14 15 15 15
13 12 12 13 13 13 13 13 12 12 12 12 12 13 13 12 12 10 11 12 11 10 10 10 10 10 10 9 9 8 8 9 9 10 12 12 13 13 13 14 14 14 15 15
14 13 13 13 13 12 12 12 11 12 12 12 12 12 12 11 10 10 10 10 10 9 9 9 10 9 9 8 7 7 8 9 9 11 12 12 12 13 13 13 14 14 15 15
14 14 13 13 13 12 12 12 12 12 12 12 11 11 10 10 9 9 9 8 8 8 8 8 8 7 7 7 7 7 8 9 9 10 11 12 12 12 12 13 14 14 15 15
14 13 13 14 14 13 12 12 12 12 11 10 9 9 8 8 7 8 7 6 6 7 8 8 8 7 7 7 7 7 8 8 9 10 11 12 12 12 13 14 14 15 15 16
Wind_Direction
228 231 240 242 240 244 247 250 255 257 257 255 257 257 257 257 257 260 263 264 266 269 271 272 270 272 274 276 277 277 277 277 280 281 283 288 290 290 289 290 290 292 294 293
248 248 246 251 251 253 255 254 258 262 261 261 261 261 259 256 255 259 263 266 266 268 272 274 271 273 275 277 279 278 277 278 280 280 282 285 287 285 288 290 290 292 295 293
254 254 260 260 260 261 260 256 259 262 265 266 267 268 265 259 257 260 264 266 268 269 269 270 272 274 277 279 279 278 278 278 280 281 280 283 284 287 288 288 291 292 294 292
271 268 267 266 265 265 259 261 266 266 266 265 267 266 267 262 260 263 266 268 268 270 271 270 271 275 278 280 279 279 279 279 282 283 282 283 284 286 286 287 289 291 292 291
274 270 271 267 269 267 262 265 270 271 269 271 273 273 270 264 263 265 266 266 267 269 271 270 271 274 277 278 278 279 278 280 282 283 285 284 284 284 285 286 287 290 291 291
285 280 277 274 275 275 277 279 278 279 279 279 275 271 270 268 266 267 270 269 270 271 272 272 274 275 277 278 279 279 279 279 280 282 284 285 286 284 286 288 288 290 292 292
293 289 285 280 279 280 275 282 290 287 279 277 275 272 269 269 269 272 273 273 274 274 275 275 277 277 276 279 280 278 277 277 279 282 282 282 283 286 288 289 289 291 293 292
290 289 286 285 281 276 274 275 278 279 278 278 279 278 275 273 274 274 273 275 277 277 277 278 278 278 278 280 282 279 276 277 279 281 282 282 283 285 288 288 289 291 293 293
285 285 288 288 281 275 275 274 273 282 289 291 288 286 284 280 280 281 280 279 280 279 280 280 280 280 280 280 281 281 279 279 280 281 281 283 283 285 288 289 290 292 293 294
284 288 289 288 283 276 272 276 282 290 293 293 295 292 284 285 283 281 281 281 282 284 284 284 284 284 282 281 282 284 283 281 281 281 282 284 285 286 288 288 290 292 294 294
286 288 289 286 280 276 279 283 285 285 286 292 294 291 287 287 285 283 281 281 284 288 287 286 285 285 285 286 285 285 283 283 282 283 283 284 287 289 288 290 291 293 294 295
285 286 288 286 279 277 277 279 282 285 287 288 294 297 294 291 289 287 285 284 286 289 290 289 288 289 290 289 287 285 285 282 282 283 283 284 286 288 288 291 293 295 297 298
284 285 289 293 291 289 283 280 280 281 284 285 293 297 295 295 291 290 290 291 291 293 294 293 292 294 293 291 289 287 284 282 282 284 284 285 286 288 289 291 294 294 298 300
284 282 281 281 281 282 283 284 283 281 285 284 286 290 291 293 292 292 293 295 295 296 296 294 293 294 293 293 292 291 287 284 285 286 285 286 285 288 289 291 293 295 300 302
283 282 280 279 280 282 283 284 285 285 285 285 284 286 290 294 295 294 295 296 298 300 298 296 296 296 298 298 296 296 292 290 289 288 286 286 286 287 288 291 293 297 302 304
283 283 282 280 281 282 285 287 290 288 287 285 285 287 292 294 296 298 300 300 301 302 299 298 300 302 303 302 300 299 294 292 292 292 291 290 289 289 289 292 294 297 301 304
286 282 280 281 281 282 286 289 289 285 284 281 283 285 287 292 296 297 299 301 306 307 304 302 303 305 306 304 302 300 298 298 295 293 294 293 292 293 294 295 299 300 302 306
288 285 283 285 285 288 288 289 286 283 282 281 282 283 288 294 298 300 302 305 307 307 305 306 304 304 307 308 306 305 305 303 302 297 296 300 298 297 297 300 302 305 305 309
289 289 288 289 293 292 286 286 283 279 280 281 284 285 289 294 297 300 303 304 305 305 305 305 305 306 309 307 306 306 304 304 303 304 305 305 305 304 302 304 307 308 308 310
289 290 289 288 289 289 286 286 283 277 278 283 287 287 292 294 297 301 303 303 304 306 307 307 305 307 308 305 305 308 307 306 306 308 310 312 313 312 309 306 309 313 314 315
287 288 290 287 286 288 286 284 279 276 278 284 288 292 296 297 300 303 306 307 310 313 312 310 307 307 308 308 309 311 310 310 311 315 319 319 322 322 316 313 314 315 317 319
283 284 284 284 285 285 282 278 273 276 279 282 287 291 296 299 302 307 312 314 315 317 314 314 312 311 312 311 312 312 314 316 317 320 322 323 325 327 326 323 322 323 324 325
281 283 280 282 283 282 280 278 275 276 276 277 282 288 294 300 305 309 313 315 316 319 319 319 318 315 318 314 315 317 321 325 329 328 329 329 330 332 331 330 332 333 335 335
277 282 282 280 281 281 279 273 276 278 277 277 280 285 292 297 301 305 309 312 316 320 321 322 323 320 324 325 327 328 328 332 334 333 335 338 337 337 336 338 338 339 340 341
279 280 279 278 279 280 277 273 274 277 275 276 279 285 292 297 300 304 309 314 316 321 323 325 331 336 343 343 337 333 331 333 338 343 343 345 343 342 342 342 343 344 343 342
279 278 276 275 274 279 278 274 274 276 275 277 279 282 292 299 301 304 308 313 316 320 324 330 333 334 342 346 346 344 344 343 344 344 346 347 347 344 343 343 344 347 348 345
Height
5830 5832 5833 5833 5834 5835 5836 5837 5837 5838 5838 5839 5839 5840 5841 5841 5841 5842 5843 5843 5843 5843 5843 5843 5843 5843 5842 5842 5841 5840 5839 5838 5837 5836 5834 5833 5831 5829 5827 5824 5822 5820 5818 5815
5831 5831 5831 5831 5832 5832 5833 5834 5834 5834 5834 5835 5836 5837 5837 5837 5838 5838 5838 5838 5839 5839 5839 5838 5838 5838 5838 5837 5836 5835 5834 5833 5831 5830 5829 5827 5825 5823 5822 5819 5817 5815 5812 5810
5830 5831 5829 5829 5830 5830 5831 5832 5832 5832 5832 5832 5833 5834 5834 5833 5833 5834 5834 5834 5834 5834 5834 5834 5834 5833 5833 5832 5831 5830 5828 5827 5826 5825 5823 5822 5820 5818 5815 5814 5812 5809 5807 5804
5828 5828 5828 5827 5827 5827 5828 5828 5828 5828 5829 5830 5831 5831 5831 5830 5830 5830 5830 5830 5830 5830 5829 5829 5828 5828 5827 5826 5825 5824 5823 5822 5820 5819 5818 5816 5814 5812 5810 5808 5806 5803 5800 5798
5827 5826 5826 5826 5825 5825 5825 5825 5825 5825 5826 5827 5827 5828 5829 5826 5826 5826 5825 5825 5825 5825 5824 5824 5823 5822 5821 5820 5819 5818 5817 5816 5815 5814 5812 5810 5808 5806 5804 5801 5799 5797 5794 5792
5825 5824 5824 5823 5823 5822 5822 5822 5822 5822 5823 5824 5824 5824 5825 5823 5822 5822 5821 5821 5820 5820 5819 5819 5818 5817 5816 5815 5813 5812 5811 5810 5809 5807 5806 5804 5802 5800 5798 5795 5792 5790 5788 5786
5824 5822 5821 5821 5820 5820 5820 5821 5821 5822 5822 5823 5821 5820 5821 5819 5818 5817 5817 5816 5816 5815 5814 5813 5812 5811 5810 5808 5807 5805 5804 5803 5802 5801 5799 5798 5796 5794 5792 5789 5786 5784 5782 5780
5822 5822 5819 5818 5818 5817 5817 5818 5819 5820 5820 5819 5817 5816 5816 5814 5813 5812 5812 5811 5811 5810 5809 5808 5807 5805 5804 5803 5800 5799 5798 5797 5796 5794 5793 5791 5790 5788 5786 5784 5782 5779 5777 5774
5818 5818 5816 5815 5814 5814 5814 5815 5815 5814 5814 5814 5814 5813 5811 5809 5808 5807 5806 5806 5805 5804 5803 5802 5801 5799 5798 5797 5795 5794 5792 5791 5790 5788 5786 5785 5784 5782 5780 5778 5776 5774 5771 5769
5813 5813 5813 5812 5811 5811 5811 5811 5811 5811 5810 5811 5811 5809 5808 5805 5804 5802 5801 5800 5800 5799 5797 5796 5795 5793 5792 5791 5790 5788 5786 5785 5783 5782 5780 5779 5778 5776 5774 5772 5771 5768 5766 5763
5809 5809 5809 5808 5807 5807 5807 5807 5807 5807 5807 5806 5806 5807 5802 5800 5799 5797 5796 5795 5794 5793 5792 5790 5789 5788 5786 5785 5784 5782 5780 5779 5777 5776 5775 5773 5772 5770 5768 5767 5765 5763 5760 5757
5805 5805 5805 5804 5804 5803 5803 5803 5803 5804 5803 5802 5801 5803 5797 5795 5794 5792 5791 5790 5789 5788 5787 5785 5783 5782 5780 5779 5777 5776 5774 5772 5771 5770 5769 5768 5766 5764 5763 5761 5759 5757 5754 5752
5801 5801 5801 5801 5802 5800 5799 5798 5798 5798 5798 5798 5797 5799 5793 5791 5789 5788 5787 5786 5784 5783 5782 5780 5778 5776 5775 5773 5771 5769 5767 5766 5765 5764 5763 5762 5760 5759 5758 5756 5754 5752 5749 5746
5797 5797 5798 5798 5797 5796 5795 5794 5794 5794 5794 5793 5793 5792 5789 5787 5785 5784 5782 5781 5780 5779 5777 5775 5773 5771 5769 5767 5765 5762 5761 5760 5759 5758 5758 5757 5755 5754 5753 5751 5749 5747 5744 5741
5793 5793 5792 5792 5791 5791 5790 5790 5790 5790 5789 5788 5788 5786 5785 5783 5782 5780 5778 5777 5776 5774 5772 5770 5768 5766 5764 5762 5760 5758 5756 5755 5754 5753 5752 5751 5750 5749 5748 5746 5745 5742 5740 5737
5788 5788 5787 5787 5787 5786 5786 5786 5785 5785 5784 5784 5783 5783 5781 5779 5778 5776 5775 5773 5771 5769 5767 5765 5763 5761 5759 5757 5755 5753 5752 5751 5750 5749 5747 5746 5745 5744 5743 5742 5740 5738 5735 5732
5784 5784 5783 5783 5783 5782 5782 5782 5781 5781 5780 5780 5779 5779 5777 5776 5774 5773 5771 5769 5767 5765 5763 5761 5759 5757 5755 5753 5751 5750 5749 5747 5745 5744 5743 5742 5740 5739 5738 5737 5735 5733 5730 5727
5780 5779 5778 5778 5779 5778 5780 5777 5777 5776 5776 5775 5775 5775 5774 5772 5771 5769 5767 5765 5763 5761 5759 5758 5756 5754 5752 5750 5748 5746 5745 5743 5742 5740 5739 5738 5736 5734 5733 5731 5730 5728 5725 5722
5776 5775 5775 5775 5774 5774 5774 5773 5772 5773 5772 5772 5771 5771 5770 5769 5767 5766 5763 5761 5760 5758 5756 5754 5752 5750 5748 5746 5744 5743 5741 5740 5738 5737 5735 5734 5732 5730 5728 5727 5725 5723 5721 5718
5773 5772 5772 5771 5770 5771 5771 5769 5769 5770 5769 5768 5768 5767 5766 5765 5763 5763 5760 5758 5756 5754 5752 5750 5748 5746 5744 5743 5741 5739 5738 5736 5735 5733 5732 5730 5728 5726 5724 5723 5721 5719 5716 5713
5769 5768 5768 5767 5766 5766 5766 5765 5766 5767 5767 5765 5764 5763 5762 5761 5760 5758 5756 5754 5752 5750 5748 5746 5745 5743 5741 5739 5738 5736 5735 5733 5731 5730 5729 5727 5725 5723 5721 5719 5717 5715 5712 5709
5765 5765 5764 5764 5763 5764 5761 5761 5762 5762 5761 5760 5760 5759 5759 5758 5756 5754 5753 5751 5749 5747 5745 5744 5742 5740 5738 5737 5735 5733 5732 5731 5729 5728 5727 5725 5723 5720 5718 5716 5714 5711 5709 5706
5761 5761 5760 5760 5761 5759 5757 5757 5757 5757 5757 5757 5756 5756 5755 5754 5753 5752 5750 5749 5747 5745 5744 5742 5740 5738 5737 5735 5733 5732 5731 5729 5728 5727 5725 5723 5721 5718 5716 5714 5711 5709 5706 5703
5758 5757 5756 5755 5755 5754 5754 5754 5754 5754 5753 5753 5753 5753 5752 5751 5750 5749 5748 5746 5745 5744 5742 5741 5739 5737 5735 5733 5732 5731 5729 5728 5727 5725 5723 5721 5719 5716 5714 5712 5709 5706 5703 5700
5754 5753 5752 5752 5751 5751 5750 5750 5750 5750 5750 5750 5750 5749 5748 5747 5747 5746 5745 5744 5743 5742 5741 5739 5738 5736 5734 5733 5731 5730 5729 5727 5726 5724 5722 5720 5717 5715 5713 5710 5707 5704 5701 5698
5750 5749 5748 5748 5747 5747 5747 5747 5747 5747 5747 5747 5747 5746 5745 5745 5744 5744 5743 5742 5742 5741 5739 5738 5737 5735 5734 5733 5731 5730 5728 5727 5725 5724 5721 5719 5717 5714 5712 5709 5706 5702 5699 5696